Time,TemperatureF,DewpointF,PressureIn,WindDirection,WindDirectionDegrees,WindSpeedMPH,WindSpeedGustMPH,Humidity,HourlyPrecipIn,Conditions,Clouds,dailyrainin,SolarRadiationWatts/m^2,SoftwareType,DateUTC
2013-02-13 00:00:00,44.9,36.8,29.81,NNE,27,3.0,4.0,73,0.00,,,0.02,0,Wunderground v.1.15,2013-02-13 05:00:00,
2013-02-13 00:02:00,44.9,36.8,29.81,NNE,30,4.0,4.0,73,0.00,,,0.02,0,Wunderground v.1.15,2013-02-13 05:02:00,
2013-02-13 00:06:00,44.9,37.1,29.80,NE,39,3.0,6.0,74,0.00,,,0.00,0,Wunderground v.1.15,2013-02-13 05:06:00,
2013-02-13 00:12:00,44.9,37.1,29.80,NE,54,4.0,4.0,74,0.00,,,0.00,0,Wunderground v.1.15,2013-02-13 05:12:00,
2013-02-13 00:14:00,44.9,37.1,29.81,NE,39,4.0,5.0,74,0.00,,,0.00,0,Wunderground v.1.15,2013-02-13 05:14:00,
2013-02-13 00:20:00,44.9,37.1,29.80,NE,47,4.0,4.0,74,0.00,,,0.00,0,Wunderground v.1.15,2013-02-13 05:20:00,
2013-02-13 00:26:00,45.1,37.6,29.80,NE,49,4.0,4.0,75,0.00,,,0.00,0,Wunderground v.1.15,2013-02-13 05:26:00,
2013-02-13 00:32:00,45.1,37.6,29.80,NNE,14,4.0,9.0,75,0.00,,,0.00,0,Wunderground v.1.15,2013-02-13 05:32:00,
2013-02-13 00:38:00,45.1,38.0,29.80,NNE,26,3.0,9.0,76,0.00,,,0.00,0,Wunderground v.1.15,2013-02-13 05:38:00,
2013-02-13 00:44:00,45.1,38.0,29.79,North,10,2.0,9.0,76,0.00,,,0.00,0,Wunderground v.1.15,2013-02-13 05:44:00,
2013-02-13 00:50:00,45.1,38.0,29.78,North,5,2.0,9.0,76,0.00,,,0.00,0,Wunderground v.1.15,2013-02-13 05:50:00,
2013-02-13 00:56:00,45.1,38.0,29.78,NNE,33,2.0,9.0,76,0.00,,,0.00,0,Wunderground v.1.15,2013-02-13 05:56:00,
2013-02-13 01:02:00,45.1,38.0,29.78,East,83,2.0,2.0,76,0.00,,,0.00,0,Wunderground v.1.15,2013-02-13 06:02:00,
2013-02-13 01:08:00,45.1,38.0,29.78,East,83,1.0,2.0,76,0.00,,,0.00,0,Wunderground v.1.15,2013-02-13 06:08:00,
2013-02-13 01:14:00,45.1,38.3,29.78,ENE,57,0.0,1.0,77,0.00,,,0.00,0,Wunderground v.1.15,2013-02-13 06:14:00,
2013-02-13 01:20:00,44.9,38.1,29.77,NE,47,1.0,1.0,77,0.00,,,0.00,0,Wunderground v.1.15,2013-02-13 06:20:00,
2013-02-13 01:26:00,44.9,38.1,29.77,NE,48,2.0,2.0,77,0.00,,,0.00,0,Wunderground v.1.15,2013-02-13 06:26:00,
2013-02-13 01:32:00,44.9,38.5,29.77,ENE,64,2.0,10.0,78,0.00,,,0.00,0,Wunderground v.1.15,2013-02-13 06:32:00,
2013-02-13 01:38:00,44.8,38.7,29.77,NNE,33,1.0,10.0,79,0.00,,,0.00,0,Wunderground v.1.15,2013-02-13 06:38:00,
2013-02-13 01:44:00,44.8,38.7,29.76,NE,52,2.0,10.0,79,0.00,,,0.00,0,Wunderground v.1.15,2013-02-13 06:44:00,
2013-02-13 01:50:00,44.8,38.7,29.77,NE,54,2.0,2.0,79,0.00,,,0.00,0,Wunderground v.1.15,2013-02-13 06:50:00,
2013-02-13 01:56:00,44.8,38.7,29.77,NE,38,2.0,10.0,79,0.00,,,0.00,0,Wunderground v.1.15,2013-02-13 06:56:00,
2013-02-13 02:02:00,44.8,38.7,29.76,NE,34,1.0,1.0,79,0.00,,,0.00,0,Wunderground v.1.15,2013-02-13 07:02:00,
2013-02-13 02:08:00,44.6,38.8,29.75,NE,39,1.0,3.0,80,0.00,,,0.00,0,Wunderground v.1.15,2013-02-13 07:08:00,
2013-02-13 02:14:00,44.5,39.0,29.76,ENE,60,2.0,3.0,81,0.00,,,0.00,0,Wunderground v.1.15,2013-02-13 07:14:00,
2013-02-13 02:20:00,44.3,39.2,29.76,ENE,65,2.0,2.0,82,0.00,,,0.01,0,Wunderground v.1.15,2013-02-13 07:20:00,
2013-02-13 02:26:00,44.2,39.4,29.75,NNE,29,1.0,2.0,83,0.00,,,0.01,0,Wunderground v.1.15,2013-02-13 07:26:00,
2013-02-13 02:32:00,44.1,39.6,29.75,NE,56,1.0,4.0,84,0.00,,,0.01,0,Wunderground v.1.15,2013-02-13 07:32:00,
2013-02-13 02:38:00,44.1,39.6,29.75,NE,56,1.0,4.0,84,0.00,,,0.01,0,Wunderground v.1.15,2013-02-13 07:38:00,
2013-02-13 02:44:00,43.9,39.4,29.75,NNE,32,1.0,4.0,84,0.00,,,0.01,0,Wunderground v.1.15,2013-02-13 07:44:00,
2013-02-13 02:50:00,43.9,39.7,29.75,NNW,340,1.0,4.0,85,0.00,,,0.01,0,Wunderground v.1.15,2013-02-13 07:50:00,
2013-02-13 02:56:00,43.9,39.7,29.74,NE,53,0.0,4.0,85,0.00,,,0.01,0,Wunderground v.1.15,2013-02-13 07:56:00,
2013-02-13 03:02:00,43.8,39.6,29.74,ENE,62,1.0,1.0,85,0.00,,,0.01,0,Wunderground v.1.15,2013-02-13 08:02:00,
2013-02-13 03:08:00,43.8,39.6,29.75,NE,39,1.0,2.0,85,0.00,,,0.02,0,Wunderground v.1.15,2013-02-13 08:08:00,
2013-02-13 03:14:00,43.8,39.9,29.74,NE,51,1.0,3.0,86,0.00,,,0.02,0,Wunderground v.1.15,2013-02-13 08:14:00,
2013-02-13 03:20:00,43.5,39.9,29.73,NNE,27,2.0,2.0,87,0.05,,,0.02,0,Wunderground v.1.15,2013-02-13 08:20:00,
2013-02-13 03:26:00,43.3,39.7,29.74,NE,38,2.0,2.0,87,0.15,,,0.04,0,Wunderground v.1.15,2013-02-13 08:26:00,
2013-02-13 03:32:00,43.3,40.0,29.73,NE,46,1.0,2.0,88,0.31,,,0.08,0,Wunderground v.1.15,2013-02-13 08:32:00,
2013-02-13 03:38:00,43.2,39.9,29.73,ENE,57,1.0,3.0,88,0.29,,,0.10,0,Wunderground v.1.15,2013-02-13 08:38:00,
2013-02-13 03:44:00,42.9,39.9,29.73,NE,55,2.0,3.0,89,0.18,,,0.12,0,Wunderground v.1.15,2013-02-13 08:44:00,
2013-02-13 03:50:00,42.8,40.1,29.72,ENE,73,2.0,3.0,90,0.11,,,0.13,0,Wunderground v.1.15,2013-02-13 08:50:00,
2013-02-13 03:56:00,42.6,39.9,29.72,North,351,2.0,3.0,90,0.05,,,0.13,0,Wunderground v.1.15,2013-02-13 08:56:00,
2013-02-13 04:02:00,42.6,39.9,29.72,NNE,23,2.0,2.0,90,0.00,,,0.13,0,Wunderground v.1.15,2013-02-13 09:02:00,
2013-02-13 04:08:00,42.6,40.2,29.71,NNE,31,1.0,3.0,91,0.00,,,0.13,0,Wunderground v.1.15,2013-02-13 09:08:00,
2013-02-13 04:14:00,42.5,40.1,29.70,NNE,22,2.0,2.0,91,0.00,,,0.13,0,Wunderground v.1.15,2013-02-13 09:14:00,
2013-02-13 04:20:00,42.5,40.1,29.71,ENE,70,2.0,2.0,91,0.00,,,0.13,0,Wunderground v.1.15,2013-02-13 09:20:00,
2013-02-13 04:26:00,42.5,40.1,29.70,NE,54,2.0,3.0,91,0.00,,,0.13,0,Wunderground v.1.15,2013-02-13 09:26:00,
2013-02-13 04:32:00,42.5,40.1,29.69,NE,37,3.0,3.0,91,0.00,,,0.13,0,Wunderground v.1.15,2013-02-13 09:32:00,
2013-02-13 04:38:00,42.5,40.3,29.69,NNE,20,2.0,4.0,92,0.00,,,0.13,0,Wunderground v.1.15,2013-02-13 09:38:00,
2013-02-13 04:44:00,42.5,40.3,29.69,North,353,2.0,4.0,92,0.00,,,0.14,0,Wunderground v.1.15,2013-02-13 09:44:00,
2013-02-13 04:50:00,42.5,40.3,29.69,ENE,71,2.0,2.0,92,0.00,,,0.14,0,Wunderground v.1.15,2013-02-13 09:50:00,
2013-02-13 04:56:00,42.5,40.3,29.69,ENE,72,1.0,4.0,92,0.00,,,0.14,0,Wunderground v.1.15,2013-02-13 09:56:00,
2013-02-13 05:02:00,42.5,40.3,29.68,NNE,33,1.0,3.0,92,0.00,,,0.14,0,Wunderground v.1.15,2013-02-13 10:02:00,
2013-02-13 05:08:00,42.5,40.3,29.68,NE,44,2.0,3.0,92,0.00,,,0.14,0,Wunderground v.1.15,2013-02-13 10:08:00,
2013-02-13 05:14:00,42.5,40.3,29.67,East,80,2.0,2.0,92,0.00,,,0.14,0,Wunderground v.1.15,2013-02-13 10:14:00,
2013-02-13 05:20:00,42.3,40.1,29.68,NE,35,1.0,1.0,92,0.00,,,0.14,0,Wunderground v.1.15,2013-02-13 10:20:00,
2013-02-13 05:26:00,42.3,40.1,29.67,North,10,1.0,1.0,92,0.00,,,0.14,0,Wunderground v.1.15,2013-02-13 10:26:00,
2013-02-13 05:32:00,42.3,40.1,29.67,NE,42,1.0,7.0,92,0.00,,,0.14,0,Wunderground v.1.15,2013-02-13 10:32:00,
2013-02-13 05:38:00,42.5,40.3,29.67,NNE,24,1.0,7.0,92,0.00,,,0.14,0,Wunderground v.1.15,2013-02-13 10:38:00,
2013-02-13 05:44:00,42.5,40.3,29.66,NNE,15,1.0,7.0,92,0.00,,,0.14,0,Wunderground v.1.15,2013-02-13 10:44:00,
2013-02-13 05:50:00,42.5,40.3,29.66,NNE,27,2.0,2.0,92,0.00,,,0.14,0,Wunderground v.1.15,2013-02-13 10:50:00,
2013-02-13 05:56:00,42.5,40.3,29.65,North,360,1.0,7.0,92,0.00,,,0.14,0,Wunderground v.1.15,2013-02-13 10:56:00,
2013-02-13 06:02:00,42.5,40.3,29.66,North,353,1.0,1.0,92,0.00,,,0.14,0,Wunderground v.1.15,2013-02-13 11:02:00,
2013-02-13 06:08:00,42.5,40.3,29.66,NE,35,0.0,1.0,92,0.00,,,0.14,0,Wunderground v.1.15,2013-02-13 11:08:00,
2013-02-13 06:14:00,42.5,40.3,29.66,NNE,24,1.0,1.0,92,0.00,,,0.14,0,Wunderground v.1.15,2013-02-13 11:14:00,
2013-02-13 06:20:00,42.5,40.3,29.65,NNE,26,1.0,1.0,92,0.00,,,0.14,0,Wunderground v.1.15,2013-02-13 11:20:00,
2013-02-13 06:26:00,42.5,40.3,29.66,NE,45,1.0,3.0,92,0.00,,,0.14,0,Wunderground v.1.15,2013-02-13 11:26:00,
2013-02-13 06:32:00,42.5,40.3,29.65,NE,45,0.0,3.0,92,0.00,,,0.14,0,Wunderground v.1.15,2013-02-13 11:32:00,
2013-02-13 06:38:00,42.6,40.4,29.65,NE,45,0.0,3.0,92,0.00,,,0.14,0,Wunderground v.1.15,2013-02-13 11:38:00,
2013-02-13 06:44:00,42.6,40.4,29.65,NE,45,0.0,3.0,92,0.00,,,0.14,0,Wunderground v.1.15,2013-02-13 11:44:00,
2013-02-13 06:50:00,42.6,40.4,29.65,NE,45,0.0,3.0,92,0.00,,,0.14,0,Wunderground v.1.15,2013-02-13 11:50:00,
2013-02-13 06:56:00,42.6,40.4,29.65,NE,45,0.0,3.0,92,0.00,,,0.14,0,Wunderground v.1.15,2013-02-13 11:56:00,
2013-02-13 07:02:00,42.8,40.6,29.65,NE,45,0.0,0.0,92,0.00,,,0.14,0,Wunderground v.1.15,2013-02-13 12:02:00,
2013-02-13 07:08:00,42.8,40.6,29.65,NE,45,0.0,0.0,92,0.00,,,0.14,0,Wunderground v.1.15,2013-02-13 12:08:00,
2013-02-13 07:14:00,42.8,40.6,29.66,NE,45,0.0,1.0,92,0.00,,,0.14,0,Wunderground v.1.15,2013-02-13 12:14:00,
2013-02-13 07:20:00,42.8,40.6,29.66,NE,45,0.0,0.0,92,0.00,,,0.14,0,Wunderground v.1.15,2013-02-13 12:20:00,
2013-02-13 07:26:00,42.8,40.6,29.66,NE,45,0.0,0.0,92,0.00,,,0.14,0,Wunderground v.1.15,2013-02-13 12:26:00,
2013-02-13 07:32:00,42.8,40.6,29.66,NE,45,0.0,3.0,92,0.00,,,0.14,0,Wunderground v.1.15,2013-02-13 12:32:00,
2013-02-13 07:38:00,42.9,40.7,29.66,NE,45,0.0,3.0,92,0.00,,,0.14,0,Wunderground v.1.15,2013-02-13 12:38:00,
2013-02-13 07:44:00,42.9,40.7,29.65,NE,45,0.0,3.0,92,0.00,,,0.14,5,Wunderground v.1.15,2013-02-13 12:44:00,
2013-02-13 07:50:00,42.9,40.7,29.65,NE,45,0.0,3.0,92,0.00,,,0.14,9,Wunderground v.1.15,2013-02-13 12:50:00,
2013-02-13 07:56:00,42.9,40.7,29.65,NE,45,0.0,3.0,92,0.00,,,0.14,14,Wunderground v.1.15,2013-02-13 12:56:00,
2013-02-13 08:02:00,42.9,40.7,29.65,NE,45,0.0,0.0,92,0.00,,,0.14,16,Wunderground v.1.15,2013-02-13 13:02:00,
2013-02-13 08:08:00,43.1,40.9,29.65,NE,45,0.0,1.0,92,0.00,,,0.14,14,Wunderground v.1.15,2013-02-13 13:08:00,
2013-02-13 08:14:00,43.1,40.9,29.65,NE,45,0.0,0.0,92,0.00,,,0.14,25,Wunderground v.1.15,2013-02-13 13:14:00,
2013-02-13 08:20:00,43.2,41.0,29.65,NE,45,0.0,1.0,92,0.00,,,0.14,25,Wunderground v.1.15,2013-02-13 13:20:00,
2013-02-13 08:26:00,43.2,41.0,29.66,NE,45,1.0,1.0,92,0.00,,,0.14,42,Wunderground v.1.15,2013-02-13 13:26:00,
2013-02-13 08:32:00,43.2,41.0,29.66,NNW,337,0.0,2.0,92,0.00,,,0.14,39,Wunderground v.1.15,2013-02-13 13:32:00,
2013-02-13 08:38:00,43.3,41.1,29.65,NNW,337,0.0,2.0,92,0.00,,,0.14,51,Wunderground v.1.15,2013-02-13 13:38:00,
2013-02-13 08:44:00,43.5,41.3,29.65,NNW,337,0.0,2.0,92,0.00,,,0.14,49,Wunderground v.1.15,2013-02-13 13:44:00,
2013-02-13 08:50:00,43.5,41.3,29.65,West,278,1.0,2.0,92,0.00,,,0.14,51,Wunderground v.1.15,2013-02-13 13:50:00,
2013-02-13 08:56:00,43.5,41.3,29.65,West,261,2.0,3.0,92,0.00,,,0.14,81,Wunderground v.1.15,2013-02-13 13:56:00,
2013-02-13 09:02:00,43.5,41.3,29.65,West,265,3.0,3.0,92,0.00,,,0.14,65,Wunderground v.1.15,2013-02-13 14:02:00,
2013-02-13 09:08:00,43.5,41.3,29.66,WNW,290,2.0,3.0,92,0.00,,,0.14,83,Wunderground v.1.15,2013-02-13 14:08:00,
2013-02-13 09:14:00,43.6,41.4,29.65,West,270,2.0,2.0,92,0.00,,,0.14,79,Wunderground v.1.15,2013-02-13 14:14:00,
2013-02-13 09:20:00,43.6,41.4,29.67,West,270,3.0,3.0,92,0.00,,,0.14,40,Wunderground v.1.15,2013-02-13 14:20:00,
2013-02-13 09:26:00,43.6,41.4,29.67,WSW,253,3.0,4.0,92,0.00,,,0.14,67,Wunderground v.1.15,2013-02-13 14:26:00,
2013-02-13 09:32:00,43.8,41.6,29.67,West,269,3.0,6.0,92,0.00,,,0.14,100,Wunderground v.1.15,2013-02-13 14:32:00,
2013-02-13 09:38:00,43.6,41.4,29.67,WSW,256,3.0,6.0,92,0.00,,,0.14,98,Wunderground v.1.15,2013-02-13 14:38:00,
2013-02-13 09:44:00,43.6,41.4,29.67,WNW,282,2.0,3.0,92,0.00,,,0.14,54,Wunderground v.1.15,2013-02-13 14:44:00,
2013-02-13 09:50:00,43.8,41.6,29.67,SW,224,2.0,2.0,92,0.00,,,0.14,63,Wunderground v.1.15,2013-02-13 14:50:00,
2013-02-13 09:56:00,43.8,41.6,29.67,West,261,2.0,2.0,92,0.00,,,0.14,54,Wunderground v.1.15,2013-02-13 14:56:00,
2013-02-13 10:02:00,43.8,41.6,29.67,West,270,2.0,2.0,92,0.00,,,0.14,49,Wunderground v.1.15,2013-02-13 15:02:00,
2013-02-13 10:08:00,43.8,41.6,29.67,West,270,2.0,2.0,92,0.00,,,0.14,62,Wunderground v.1.15,2013-02-13 15:08:00,
2013-02-13 10:14:00,43.8,41.6,29.67,West,277,2.0,2.0,92,0.00,,,0.14,77,Wunderground v.1.15,2013-02-13 15:14:00,
2013-02-13 10:20:00,43.8,41.6,29.66,West,269,1.0,1.0,92,0.00,,,0.14,60,Wunderground v.1.15,2013-02-13 15:20:00,
2013-02-13 10:26:00,43.8,41.6,29.66,West,261,1.0,3.0,92,0.00,,,0.14,60,Wunderground v.1.15,2013-02-13 15:26:00,
2013-02-13 10:32:00,43.6,41.4,29.67,NW,305,2.0,9.0,92,0.00,,,0.14,33,Wunderground v.1.15,2013-02-13 15:32:00,
2013-02-13 10:38:00,43.6,41.4,29.67,West,265,2.0,9.0,92,0.00,,,0.14,58,Wunderground v.1.15,2013-02-13 15:38:00,
2013-02-13 10:44:00,43.6,41.4,29.66,West,261,2.0,9.0,92,0.00,,,0.14,76,Wunderground v.1.15,2013-02-13 15:44:00,
2013-02-13 10:50:00,43.8,41.6,29.66,West,274,1.0,1.0,92,0.00,,,0.15,79,Wunderground v.1.15,2013-02-13 15:50:00,
2013-02-13 10:56:00,43.8,41.9,29.67,West,274,1.0,9.0,93,0.00,,,0.15,39,Wunderground v.1.15,2013-02-13 15:56:00,
2013-02-13 11:02:00,43.9,42.0,29.67,West,273,2.0,3.0,93,0.00,,,0.15,63,Wunderground v.1.15,2013-02-13 16:02:00,
2013-02-13 11:08:00,43.9,42.0,29.67,SW,228,2.0,3.0,93,0.00,,,0.15,67,Wunderground v.1.15,2013-02-13 16:08:00,
2013-02-13 11:14:00,43.9,42.0,29.67,West,280,2.0,2.0,93,0.00,,,0.15,84,Wunderground v.1.15,2013-02-13 16:14:00,
2013-02-13 11:20:00,43.9,42.0,29.67,WSW,252,2.0,2.0,93,0.00,,,0.15,72,Wunderground v.1.15,2013-02-13 16:20:00,
2013-02-13 11:26:00,44.1,42.2,29.67,West,274,1.0,2.0,93,0.00,,,0.15,79,Wunderground v.1.15,2013-02-13 16:26:00,
2013-02-13 11:32:00,44.1,42.2,29.67,West,270,1.0,4.0,93,0.00,,,0.15,76,Wunderground v.1.15,2013-02-13 16:32:00,
2013-02-13 11:38:00,44.3,42.4,29.67,WSW,258,1.0,4.0,93,0.00,,,0.15,142,Wunderground v.1.15,2013-02-13 16:38:00,
2013-02-13 11:44:00,44.5,42.6,29.67,SW,233,2.0,4.0,93,0.00,,,0.15,188,Wunderground v.1.15,2013-02-13 16:44:00,
2013-02-13 11:50:00,44.6,42.7,29.66,WSW,240,2.0,2.0,93,0.00,,,0.15,107,Wunderground v.1.15,2013-02-13 16:50:00,
2013-02-13 11:56:00,44.8,42.9,29.66,SSW,201,2.0,4.0,93,0.00,,,0.16,232,Wunderground v.1.15,2013-02-13 16:56:00,
2013-02-13 12:02:00,44.9,43.0,29.65,WSW,245,2.0,3.0,93,0.00,,,0.16,135,Wunderground v.1.15,2013-02-13 17:02:00,
2013-02-13 12:08:00,45.2,43.3,29.65,West,262,2.0,3.0,93,0.00,,,0.16,149,Wunderground v.1.15,2013-02-13 17:08:00,
2013-02-13 12:14:00,45.2,43.3,29.65,WSW,249,2.0,3.0,93,0.00,,,0.16,174,Wunderground v.1.15,2013-02-13 17:14:00,
2013-02-13 12:20:00,45.4,43.5,29.65,West,264,3.0,3.0,93,0.00,,,0.16,186,Wunderground v.1.15,2013-02-13 17:20:00,
2013-02-13 12:26:00,45.7,44.1,29.64,West,259,5.0,11.0,94,0.00,,,0.16,243,Wunderground v.1.15,2013-02-13 17:26:00,
2013-02-13 12:32:00,45.8,43.9,29.65,West,270,7.0,10.0,93,0.00,,,0.16,188,Wunderground v.1.15,2013-02-13 17:32:00,
2013-02-13 12:38:00,46.1,44.2,29.65,West,262,7.0,11.0,93,0.00,,,0.16,179,Wunderground v.1.15,2013-02-13 17:38:00,
2013-02-13 12:44:00,46.2,44.3,29.64,WSW,247,7.0,12.0,93,0.00,,,0.16,176,Wunderground v.1.15,2013-02-13 17:44:00,
2013-02-13 12:50:00,46.4,44.5,29.64,WNW,284,8.0,9.0,93,0.00,,,0.16,220,Wunderground v.1.15,2013-02-13 17:50:00,
2013-02-13 12:56:00,46.8,44.9,29.64,WSW,255,10.0,14.0,93,0.00,,,0.16,264,Wunderground v.1.15,2013-02-13 17:56:00,
2013-02-13 13:02:00,47.3,45.1,29.64,WSW,258,9.0,11.0,92,0.00,,,0.16,223,Wunderground v.1.15,2013-02-13 18:02:00,
2013-02-13 13:08:00,47.3,44.8,29.63,WSW,251,10.0,12.0,91,0.00,,,0.16,156,Wunderground v.1.15,2013-02-13 18:08:00,
2013-02-13 13:14:00,47.6,45.1,29.64,WSW,241,10.0,10.0,91,0.00,,,0.16,192,Wunderground v.1.15,2013-02-13 18:14:00,
2013-02-13 13:20:00,47.6,45.1,29.63,WNW,293,9.0,9.0,91,0.00,,,0.16,77,Wunderground v.1.15,2013-02-13 18:20:00,
2013-02-13 13:26:00,47.4,44.6,29.63,WNW,295,9.0,13.0,90,0.00,,,0.17,174,Wunderground v.1.15,2013-02-13 18:26:00,
2013-02-13 13:32:00,47.6,45.1,29.64,WSW,252,9.0,17.0,91,0.10,,,0.18,132,Wunderground v.1.15,2013-02-13 18:32:00,
2013-02-13 13:38:00,47.6,45.1,29.64,West,263,10.0,17.0,91,0.07,,,0.18,81,Wunderground v.1.15,2013-02-13 18:38:00,
2013-02-13 13:44:00,47.6,45.1,29.64,West,263,8.0,17.0,91,0.04,,,0.18,97,Wunderground v.1.15,2013-02-13 18:44:00,
2013-02-13 13:50:00,47.3,44.5,29.64,West,277,9.0,17.0,90,0.00,,,0.18,86,Wunderground v.1.15,2013-02-13 18:50:00,
2013-02-13 13:56:00,47.1,44.3,29.65,WSW,246,10.0,17.0,90,0.00,,,0.19,148,Wunderground v.1.15,2013-02-13 18:56:00,
2013-02-13 14:02:00,47.1,44.0,29.65,WNW,293,11.0,15.0,89,0.00,,,0.19,149,Wunderground v.1.15,2013-02-13 19:02:00,
2013-02-13 14:08:00,47.3,43.9,29.65,WSW,248,11.0,15.0,88,0.00,,,0.19,84,Wunderground v.1.15,2013-02-13 19:08:00,
2013-02-13 14:14:00,47.1,43.4,29.66,WNW,294,12.0,14.0,87,0.00,,,0.19,120,Wunderground v.1.15,2013-02-13 19:14:00,
2013-02-13 14:20:00,47.0,43.0,29.66,West,268,12.0,12.0,86,0.00,,,0.19,102,Wunderground v.1.15,2013-02-13 19:20:00,
2013-02-13 14:26:00,47.0,43.3,29.67,WSW,254,11.0,16.0,87,0.00,,,0.19,130,Wunderground v.1.15,2013-02-13 19:26:00,
2013-02-13 14:32:00,46.8,42.8,29.67,West,264,10.0,15.0,86,0.00,,,0.19,84,Wunderground v.1.15,2013-02-13 19:32:00,
2013-02-13 14:38:00,46.8,42.8,29.68,WNW,285,10.0,19.0,86,0.00,,,0.19,95,Wunderground v.1.15,2013-02-13 19:38:00,
2013-02-13 14:44:00,46.7,42.4,29.67,WNW,284,9.0,19.0,85,0.00,,,0.19,72,Wunderground v.1.15,2013-02-13 19:44:00,
2013-02-13 14:50:00,46.5,42.5,29.68,West,270,9.0,19.0,86,0.00,,,0.19,65,Wunderground v.1.15,2013-02-13 19:50:00,
2013-02-13 14:56:00,46.4,42.4,29.68,SW,225,9.0,19.0,86,0.00,,,0.19,56,Wunderground v.1.15,2013-02-13 19:56:00,
2013-02-13 15:02:00,46.0,41.7,29.68,WSW,240,9.0,12.0,85,0.00,,,0.20,40,Wunderground v.1.15,2013-02-13 20:02:00,
2013-02-13 15:08:00,45.4,41.5,29.69,WSW,249,9.0,12.0,86,0.08,,,0.21,65,Wunderground v.1.15,2013-02-13 20:08:00,
2013-02-13 15:14:00,45.4,41.8,29.69,WNW,299,8.0,10.0,87,0.06,,,0.22,60,Wunderground v.1.15,2013-02-13 20:14:00,
2013-02-13 15:20:00,44.8,40.9,29.70,WNW,284,5.0,9.0,86,0.06,,,0.22,23,Wunderground v.1.15,2013-02-13 20:20:00,
2013-02-13 15:26:00,43.8,39.6,29.70,SW,228,4.0,9.0,85,0.06,,,0.23,72,Wunderground v.1.15,2013-02-13 20:26:00,
2013-02-13 15:32:00,43.2,39.3,29.71,WNW,293,3.0,5.0,86,0.10,,,0.24,30,Wunderground v.1.15,2013-02-13 20:32:00,
2013-02-13 15:38:00,42.3,38.1,29.72,SW,234,5.0,22.0,85,0.05,,,0.24,19,Wunderground v.1.15,2013-02-13 20:38:00,
2013-02-13 15:44:00,42.1,37.9,29.73,WSW,247,5.0,22.0,85,0.00,,,0.24,32,Wunderground v.1.15,2013-02-13 20:44:00,
2013-02-13 15:50:00,41.8,37.6,29.73,South,176,3.0,3.0,85,0.00,,,0.24,179,Wunderground v.1.15,2013-02-13 20:50:00,
2013-02-13 15:56:00,41.9,37.7,29.74,SW,217,3.0,22.0,85,0.00,,,0.24,76,Wunderground v.1.15,2013-02-13 20:56:00,
2013-02-13 16:02:00,41.9,37.7,29.75,WSW,242,4.0,6.0,85,0.00,,,0.24,156,Wunderground v.1.15,2013-02-13 21:02:00,
2013-02-13 16:08:00,41.9,37.7,29.75,NW,305,3.0,6.0,85,0.00,,,0.24,46,Wunderground v.1.15,2013-02-13 21:08:00,
2013-02-13 16:14:00,41.8,37.0,29.76,NW,326,3.0,4.0,83,0.00,,,0.24,28,Wunderground v.1.15,2013-02-13 21:14:00,
2013-02-13 16:20:00,41.5,36.4,29.77,West,259,5.0,6.0,82,0.00,,,0.24,32,Wunderground v.1.15,2013-02-13 21:20:00,
2013-02-13 16:26:00,41.2,35.8,29.78,WSW,258,4.0,7.0,81,0.00,,,0.24,26,Wunderground v.1.15,2013-02-13 21:26:00,
2013-02-13 16:32:00,41.1,35.7,29.78,WSW,241,4.0,5.0,81,0.00,,,0.24,49,Wunderground v.1.15,2013-02-13 21:32:00,
2013-02-13 16:38:00,40.9,35.2,29.78,WNW,295,3.0,19.0,80,0.00,,,0.24,81,Wunderground v.1.15,2013-02-13 21:38:00,
2013-02-13 16:44:00,40.9,35.2,29.79,WSW,253,3.0,19.0,80,0.00,,,0.24,58,Wunderground v.1.15,2013-02-13 21:44:00,
2013-02-13 16:50:00,40.8,35.1,29.79,WSW,243,4.0,4.0,80,0.00,,,0.24,65,Wunderground v.1.15,2013-02-13 21:50:00,
2013-02-13 16:56:00,40.8,35.1,29.80,WSW,245,4.0,19.0,80,0.00,,,0.24,56,Wunderground v.1.15,2013-02-13 21:56:00,
2013-02-13 17:02:00,40.8,35.1,29.80,WNW,291,4.0,7.0,80,0.00,,,0.24,56,Wunderground v.1.15,2013-02-13 22:02:00,
2013-02-13 17:08:00,40.6,34.9,29.81,SW,222,4.0,8.0,80,0.00,,,0.24,44,Wunderground v.1.15,2013-02-13 22:08:00,
2013-02-13 17:14:00,40.5,34.5,29.82,West,268,3.0,5.0,79,0.00,,,0.24,28,Wunderground v.1.15,2013-02-13 22:14:00,
2013-02-13 17:20:00,40.3,34.3,29.82,West,270,3.0,3.0,79,0.00,,,0.24,28,Wunderground v.1.15,2013-02-13 22:20:00,
2013-02-13 17:26:00,40.3,34.3,29.82,WSW,246,3.0,4.0,79,0.00,,,0.24,33,Wunderground v.1.15,2013-02-13 22:26:00,
2013-02-13 17:32:00,40.2,34.2,29.83,West,270,3.0,17.0,79,0.00,,,0.24,32,Wunderground v.1.15,2013-02-13 22:32:00,
2013-02-13 17:38:00,40.1,34.4,29.83,WSW,252,3.0,17.0,80,0.00,,,0.24,30,Wunderground v.1.15,2013-02-13 22:38:00,
2013-02-13 17:44:00,39.9,33.9,29.83,West,261,2.0,17.0,79,0.00,,,0.24,33,Wunderground v.1.15,2013-02-13 22:44:00,
2013-02-13 17:50:00,39.8,33.8,29.84,West,262,2.0,2.0,79,0.00,,,0.24,18,Wunderground v.1.15,2013-02-13 22:50:00,
2013-02-13 17:56:00,39.8,34.1,29.85,WSW,255,1.0,17.0,80,0.00,,,0.24,11,Wunderground v.1.15,2013-02-13 22:56:00,
2013-02-13 18:02:00,39.6,33.9,29.84,West,275,1.0,2.0,80,0.00,,,0.24,7,Wunderground v.1.15,2013-02-13 23:02:00,
2013-02-13 18:08:00,39.6,34.2,29.85,WSW,249,2.0,3.0,81,0.00,,,0.24,5,Wunderground v.1.15,2013-02-13 23:08:00,
2013-02-13 18:14:00,39.6,34.2,29.85,West,268,3.0,4.0,81,0.00,,,0.24,0,Wunderground v.1.15,2013-02-13 23:14:00,
2013-02-13 18:20:00,39.5,34.2,29.85,West,271,3.0,3.0,81,0.00,,,0.24,0,Wunderground v.1.15,2013-02-13 23:20:00,
2013-02-13 18:26:00,39.3,34.0,29.86,West,263,2.0,4.0,81,0.00,,,0.24,0,Wunderground v.1.15,2013-02-13 23:26:00,
2013-02-13 18:32:00,39.2,34.2,29.87,WNW,295,1.0,12.0,82,0.00,,,0.24,0,Wunderground v.1.15,2013-02-13 23:32:00,
2013-02-13 18:38:00,39.1,34.1,29.87,WSW,253,2.0,12.0,82,0.00,,,0.24,0,Wunderground v.1.15,2013-02-13 23:38:00,
2013-02-13 18:44:00,38.9,33.9,29.87,WSW,254,2.0,12.0,82,0.00,,,0.24,0,Wunderground v.1.15,2013-02-13 23:44:00,
2013-02-13 18:50:00,38.8,33.8,29.88,West,264,2.0,12.0,82,0.00,,,0.24,0,Wunderground v.1.15,2013-02-13 23:50:00,
2013-02-13 18:56:00,38.8,33.8,29.88,WSW,243,1.0,12.0,82,0.00,,,0.24,0,Wunderground v.1.15,2013-02-13 23:56:00,
2013-02-13 19:02:00,38.8,33.8,29.88,West,262,1.0,3.0,82,0.00,,,0.24,0,Wunderground v.1.15,2013-02-14 00:02:00,
2013-02-13 19:08:00,38.8,33.8,29.88,West,272,1.0,3.0,82,0.00,,,0.24,0,Wunderground v.1.15,2013-02-14 00:08:00,
2013-02-13 19:14:00,38.8,33.8,29.89,West,276,2.0,2.0,82,0.00,,,0.24,0,Wunderground v.1.15,2013-02-14 00:14:00,
2013-02-13 19:20:00,38.8,33.8,29.89,West,270,1.0,1.0,82,0.00,,,0.24,0,Wunderground v.1.15,2013-02-14 00:20:00,
2013-02-13 19:26:00,38.6,33.6,29.89,West,266,1.0,1.0,82,0.00,,,0.24,0,Wunderground v.1.15,2013-02-14 00:26:00,
2013-02-13 19:32:00,38.6,33.6,29.89,West,266,0.0,1.0,82,0.00,,,0.24,0,Wunderground v.1.15,2013-02-14 00:32:00,
2013-02-13 19:38:00,38.5,33.5,29.89,West,266,0.0,6.0,82,0.00,,,0.24,0,Wunderground v.1.15,2013-02-14 00:38:00,
2013-02-13 19:44:00,38.5,33.5,29.90,West,266,1.0,6.0,82,0.00,,,0.24,0,Wunderground v.1.15,2013-02-14 00:44:00,
2013-02-13 19:50:00,38.5,33.5,29.90,West,266,1.0,1.0,82,0.00,,,0.24,0,Wunderground v.1.15,2013-02-14 00:50:00,
2013-02-13 19:56:00,38.3,33.3,29.90,West,266,1.0,6.0,82,0.00,,,0.24,0,Wunderground v.1.15,2013-02-14 00:56:00,
2013-02-13 20:02:00,38.3,33.3,29.90,West,266,1.0,1.0,82,0.00,,,0.24,0,Wunderground v.1.15,2013-02-14 01:02:00,
2013-02-13 20:08:00,38.3,33.3,29.90,West,266,0.0,1.0,82,0.00,,,0.24,0,Wunderground v.1.15,2013-02-14 01:08:00,
2013-02-13 20:14:00,38.3,33.3,29.90,WNW,282,0.0,1.0,82,0.00,,,0.24,0,Wunderground v.1.15,2013-02-14 01:14:00,
2013-02-13 20:20:00,38.3,33.6,29.90,WNW,282,1.0,1.0,83,0.00,,,0.24,0,Wunderground v.1.15,2013-02-14 01:20:00,
2013-02-13 20:26:00,38.3,33.6,29.90,WNW,282,0.0,1.0,83,0.00,,,0.24,0,Wunderground v.1.15,2013-02-14 01:26:00,
2013-02-13 20:32:00,38.3,33.6,29.90,WNW,282,1.0,2.0,83,0.00,,,0.24,0,Wunderground v.1.15,2013-02-14 01:32:00,
2013-02-13 20:38:00,38.2,33.5,29.91,WNW,282,1.0,5.0,83,0.00,,,0.24,0,Wunderground v.1.15,2013-02-14 01:38:00,
2013-02-13 20:44:00,38.3,33.9,29.91,WNW,282,1.0,5.0,84,0.00,,,0.24,0,Wunderground v.1.15,2013-02-14 01:44:00,
2013-02-13 20:50:00,38.2,33.8,29.92,WSW,256,1.0,5.0,84,0.00,,,0.24,0,Wunderground v.1.15,2013-02-14 01:50:00,
2013-02-13 20:56:00,38.2,33.8,29.92,West,280,1.0,5.0,84,0.00,,,0.24,0,Wunderground v.1.15,2013-02-14 01:56:00,
2013-02-13 21:02:00,38.3,33.9,29.92,West,280,1.0,1.0,84,0.00,,,0.24,0,Wunderground v.1.15,2013-02-14 02:02:00,
2013-02-13 21:08:00,38.3,33.9,29.92,West,280,0.0,1.0,84,0.00,,,0.24,0,Wunderground v.1.15,2013-02-14 02:08:00,
2013-02-13 21:14:00,38.3,33.9,29.92,West,280,0.0,2.0,84,0.00,,,0.24,0,Wunderground v.1.15,2013-02-14 02:14:00,
2013-02-13 21:20:00,38.3,33.9,29.92,West,280,1.0,1.0,84,0.00,,,0.24,0,Wunderground v.1.15,2013-02-14 02:20:00,
2013-02-13 21:26:00,38.3,33.9,29.92,West,280,0.0,1.0,84,0.00,,,0.24,0,Wunderground v.1.15,2013-02-14 02:26:00,
2013-02-13 21:32:00,38.3,33.6,29.92,West,280,0.0,3.0,83,0.00,,,0.24,0,Wunderground v.1.15,2013-02-14 02:32:00,
2013-02-13 21:38:00,38.3,33.6,29.93,West,280,0.0,3.0,83,0.00,,,0.24,0,Wunderground v.1.15,2013-02-14 02:38:00,
2013-02-13 21:44:00,38.3,33.6,29.93,West,280,0.0,3.0,83,0.00,,,0.24,0,Wunderground v.1.15,2013-02-14 02:44:00,
2013-02-13 21:50:00,38.3,33.9,29.93,West,280,0.0,3.0,84,0.00,,,0.24,0,Wunderground v.1.15,2013-02-14 02:50:00,
2013-02-13 21:56:00,38.3,33.9,29.93,West,280,0.0,3.0,84,0.00,,,0.24,0,Wunderground v.1.15,2013-02-14 02:56:00,
2013-02-13 22:02:00,38.3,33.9,29.93,West,280,0.0,1.0,84,0.00,,,0.24,0,Wunderground v.1.15,2013-02-14 03:02:00,
2013-02-13 22:08:00,38.3,33.9,29.94,West,280,1.0,2.0,84,0.00,,,0.24,0,Wunderground v.1.15,2013-02-14 03:08:00,
2013-02-13 22:14:00,38.3,33.9,29.94,West,280,1.0,1.0,84,0.00,,,0.24,0,Wunderground v.1.15,2013-02-14 03:14:00,
2013-02-13 22:20:00,38.3,33.6,29.94,WNW,286,0.0,1.0,83,0.00,,,0.24,0,Wunderground v.1.15,2013-02-14 03:20:00,
2013-02-13 22:26:00,38.3,33.6,29.94,WNW,286,1.0,1.0,83,0.00,,,0.24,0,Wunderground v.1.15,2013-02-14 03:26:00,
2013-02-13 22:32:00,38.3,33.3,29.94,WNW,285,0.0,3.0,82,0.00,,,0.24,0,Wunderground v.1.15,2013-02-14 03:32:00,
2013-02-13 22:38:00,38.3,33.3,29.94,West,276,0.0,3.0,82,0.00,,,0.24,0,Wunderground v.1.15,2013-02-14 03:38:00,
2013-02-13 22:44:00,38.3,33.3,29.94,WNW,297,0.0,3.0,82,0.00,,,0.24,0,Wunderground v.1.15,2013-02-14 03:44:00,
2013-02-13 22:50:00,38.3,33.3,29.94,NW,322,1.0,3.0,82,0.00,,,0.24,0,Wunderground v.1.15,2013-02-14 03:50:00,
2013-02-13 22:56:00,38.3,33.3,29.94,WSW,253,1.0,3.0,82,0.00,,,0.24,0,Wunderground v.1.15,2013-02-14 03:56:00,
2013-02-13 23:02:00,38.3,33.3,29.95,WSW,253,0.0,0.0,82,0.00,,,0.24,0,Wunderground v.1.15,2013-02-14 04:02:00,
2013-02-13 23:08:00,38.3,33.3,29.95,West,270,0.0,1.0,82,0.00,,,0.24,0,Wunderground v.1.15,2013-02-14 04:08:00,
2013-02-13 23:14:00,38.3,33.3,29.95,WSW,256,1.0,2.0,82,0.00,,,0.24,0,Wunderground v.1.15,2013-02-14 04:14:00,
2013-02-13 23:20:00,38.3,33.3,29.95,WSW,256,0.0,0.0,82,0.00,,,0.24,0,Wunderground v.1.15,2013-02-14 04:20:00,
2013-02-13 23:26:00,38.2,33.5,29.95,WSW,256,0.0,0.0,83,0.00,,,0.24,0,Wunderground v.1.15,2013-02-14 04:26:00,
2013-02-13 23:32:00,38.2,33.5,29.95,WSW,256,0.0,2.0,83,0.00,,,0.24,0,Wunderground v.1.15,2013-02-14 04:32:00,
2013-02-13 23:38:00,38.0,33.3,29.96,WSW,256,0.0,2.0,83,0.00,,,0.24,0,Wunderground v.1.15,2013-02-14 04:38:00,
2013-02-13 23:44:00,37.9,33.2,29.96,WSW,256,0.0,2.0,83,0.00,,,0.24,0,Wunderground v.1.15,2013-02-14 04:44:00,
2013-02-13 23:50:00,37.8,33.1,29.96,WSW,256,0.0,2.0,83,0.00,,,0.24,0,Wunderground v.1.15,2013-02-14 04:50:00,
2013-02-13 23:56:00,37.6,32.9,29.96,WSW,256,0.0,2.0,83,0.00,,,0.24,0,Wunderground v.1.15,2013-02-14 04:56:00,